Погода в Атаке

Йемен     14°31′53″N   46°50′20″E
темп.,
°C
ветер,
м/с
пор.,
м/с
влажн.,
%
обл.,
%
осадки,
мм/ч
давл.,
гПа
погр.,
м
24 мая, вт
вт2400:00+26ююв342847 0.0 100737
03:00+25ююв22185 0.0 100711
06:00+25юв22165 0.0 100811
09:00+33юв3585 0.0 10081314
12:00+36в4665 0.0 10063662
15:00+37ююв58729 0.0 10034069
18:00+30ююв883061 0.0 1006443
21:00+27ююв4735100 0.0 1009218
25 мая, ср
ср2500:00+26юв332981 0.0 100940
03:00+25ююв22255 0.0 100812
06:00+25ююв11235 0.0 101011
09:00+31с34145 0.0 1010765
12:00+36св4687 0.0 10083649
15:00+37с67726 0.0 10054463
18:00+30юв910300 0.0 1007473
21:00+27ююв46414 0.0 1010188
26 мая, чт
чт2600:00+25юв34450 0.0 101186
03:00+24ююв223527 0.0 101013
06:00+25юв22325 0.0 101112
09:00+30с22225 0.0 1012796
12:00+35в45130 0.0 10093641
15:00+36юв46112 0.0 10064204
18:00+29ююв99485 0.0 1008576
21:00+26ююв59570 0.0 1011402
27 мая, пт
пт2700:00+25ююв46440 0.0 1010120
03:00+25ююв33260 0.0 100923
06:00+25юв22230 0.0 101116
09:00+31юв24140 0.0 10111000
12:00+35вюв57115 0.0 10084027
15:00+35ююв691569 0.0 10053614
18:00+29ююв884512 0.0 1007548
21:00+26ююв6105790 0.0 1010352
28 мая, сб
сб2800:00+25юв444531 0.0 101085
03:00+25ююв223320 0.0 100917
06:00+25ююв222624 0.0 101012
09:00+32ююв24145 0.0 10101158
12:00+35вюв57113 0.0 10074081
15:00+36ююв7101262 0.0 10044388
18:00+30ююв683028 0.0 1007426
21:00+27ююв594410 0.0 1009295